This is the latest recevied weather packets stored in our database for station/object KG0HG. If no packets are shown the sender has not sent any weather packets the latest 10 day(s).
| Time | Temp. | Humidity | Pressure | Rain* | Wind** | Luminosity | Snow |
|---|---|---|---|---|---|---|---|
| 1777592991 | 17.22° C | 48% | 1015.8 hPa | 0 mm | - | 36 W/m² | - |
| 1777592686 | 17.22° C | 48% | 1015.7 hPa | 0 mm | - | 36 W/m² | - |
| 1777592382 | 17.78° C | 49% | 1015.5 hPa | 0 mm | - | 46 W/m² | - |
| 1777592077 | 17.78° C | 50% | 1015.6 hPa | 0 mm | - | 55 W/m² | - |
| 1777591775 | 17.78° C | 49% | 1015.6 hPa | 0 mm | - | 117 W/m² | - |
| 1777591470 | 17.78° C | 49% | 1015.5 hPa | 0 mm | - | 65 W/m² | - |
| 1777591167 | 17.78° C | 49% | 1015.8 hPa | 0 mm | - | 85 W/m² | - |
| 1777590861 | 17.78° C | 48% | 1015.5 hPa | 0 mm | - | 76 W/m² | - |
| 1777590558 | 17.78° C | 47% | 1015.4 hPa | 0 mm | - | 69 W/m² | - |
| 1777590254 | 17.78° C | 47% | 1015.3 hPa | 0 mm | - | 48 W/m² | - |
| 1777589952 | 18.33° C | 46% | 1015.4 hPa | 0 mm | - | 47 W/m² | - |
| 1777589648 | 18.33° C | 47% | 1015.2 hPa | 0 mm | - | 60 W/m² | - |
| 1777589345 | 18.33° C | 47% | 1015.3 hPa | 0 mm | - | 46 W/m² | - |
| 1777589042 | 17.78° C | 47% | 1015 hPa | 0 mm | - | 52 W/m² | - |
| 1777588738 | 18.33° C | 47% | 1015.2 hPa | 0 mm | - | 73 W/m² | - |
| 1777588434 | 18.33° C | 47% | 1015.2 hPa | 0 mm | - | 69 W/m² | - |
| 1777588129 | 18.33° C | 49% | 1015.3 hPa | 0 mm | - | 76 W/m² | - |
| 1777587826 | 18.33° C | 50% | 1014.9 hPa | 0 mm | - | 103 W/m² | - |
| 1777587525 | 18.89° C | 48% | 1015.1 hPa | 0 mm | - | 82 W/m² | - |
| 1777587221 | 18.89° C | 48% | 1015 hPa | 0 mm | - | 95 W/m² | - |
| 1777586917 | 18.89° C | 49% | 1015.3 hPa | 0 mm | - | 115 W/m² | - |
| 1777586613 | 18.89° C | 50% | 1015.1 hPa | 0 mm | - | 97 W/m² | - |
| 1777586309 | 18.89° C | 50% | 1015.1 hPa | 0 mm | - | 115 W/m² | - |
| 1777586007 | 18.89° C | 48% | 1015.1 hPa | 0 mm | - | 124 W/m² | - |
| 1777585702 | 18.89° C | 49% | 1015.1 hPa | 0 mm | - | 123 W/m² | - |
* Rain latest hour (hover to see other rain measurements)
** Current wind speed in m/s (hover to see current wind gust speed)